{"data":{"norad_id":55380,"intl_designator":"2023-013BB","name":"STARLINK-5571","alt_names":[],"object_type":"PAYLOAD","status":"ACTIVE","operator":null,"country":"US","launch_date":"2023-01-26","launch_site_code":"AFETR","launch_vehicle":null,"mission":null,"orbit_class":"UNKNOWN","rcs_meters":null,"size_class":null,"mass_kg":null,"dimensions":null,"purposes":["comms"],"wikipedia_slug":null,"has_3d_model":false,"image_url":null,"decayed_at":null,"tle_current":{"epoch":"2026-09-20T13:10:01.101504Z","epoch_age_seconds":92519,"freshness":"FRESH","line1":"1 55380U 23013BB  26263.54862386  .00000601  00000+0  31374-4 0  9999","line2":"2 55380  43.0012 287.0387 0001197 269.4221  90.6493 15.27580101201422","mean_motion":15.27580101,"eccentricity":0.0001197,"inclination_deg":43.0012,"raan_deg":287.0387,"arg_perigee_deg":269.4221,"mean_anomaly_deg":90.6493,"bstar":3.1374e-5,"rev_number":20142,"period_min":94.266742480956,"perigee_km":482.22750966984,"apogee_km":483.87007754883,"semimajor_km":6861.1857936093,"source":"CELESTRAK","updated_at":"2026-09-21T09:00:33.211602Z"}}}